Meteo Giornale » Osservazioni meteo Italia » Cervia
ore: 05:55 - Osservazioni Meteo Cervia
Lat. 44° 13' N Lon. 12° 18' E Alt. 6 metri s.l.m.
20 °C
Sereno
Temp. 24 Ore
20 °C
31 °C
Nord
0 Km/h
Dew point 16 °C
Umidità 77 %
Visibilità 10 Km
Il sole sorge alle ore 06:34
Il sole tramonta alle ore 19:46
| Data e Ora | Cielo e Fenomeni | T °C | DP °C | Um. % | Pres. hPa | Vis. km | Vento km/h | |
|---|---|---|---|---|---|---|---|---|
| Oggi h: 05:55 | Sereno | 20 | 16 | 77 | 1018 | 10 | N 0 | |
| Oggi h: 04:55 | Sereno | 20 | 18 | 88 | 1018 | 10 | N 5.5 | |
| Oggi h: 03:55 | Sereno | 21 | 18 | 82 | 1018 | 10 | N 5.5 | |
| Oggi h: 02:55 | Sereno | 22 | 20 | 88 | 1018 | 10 | O 7.4 | |
| Oggi h: 01:55 | Sereno | 23 | 21 | 88 | 1018 | 10 | N 5.5 | |
| Oggi h: 00:55 | Sereno | 23 | 21 | 88 | 1018 | 10 | N 5.5 | |
| Ieri h: 23:55 | Sereno | 24 | 22 | 88 | 1018 | 10 | N 3.7 | |
| Ieri h: 22:55 | Sereno | 25 | 23 | 88 | 1017 | 10 | N 3.7 | |
| Ieri h: 21:55 | Nuvoloso | 26 | 23 | 83 | 1017 | 10 | N 3.7 | |
| Ieri h: 20:55 | Nuvoloso | 27 | 22 | 74 | 1017 | 10 | SE 9.3 | |
| Ieri h: 19:55 | Nuvoloso | 28 | 22 | 69 | 1016 | 10 | E 11.1 | |
| Ieri h: 18:55 | Sereno | 28 | 23 | 74 | 1016 | 10 | E 14.8 | |
| Ieri h: 17:55 | Sereno | 29 | 21 | 62 | 1017 | 10 | E 14.8 | |
| Ieri h: 16:55 | Poco Nuvoloso | 30 | 20 | 55 | 1017 | 10 | E 16.7 | |
| Ieri h: 15:55 | Poco Nuvoloso | 30 | 20 | 55 | 1017 | 10 | E/NE 20.3 | |
| Ieri h: 14:55 | Poco Nuvoloso | 30 | 20 | 55 | 1017 | 10 | E/NE 20.3 | |
| Ieri h: 13:55 | Poco Nuvoloso | 30 | 21 | 58 | 1017 | 10 | NE 20.3 | |
| Ieri h: 12:55 | Poco Nuvoloso | 30 | 21 | 58 | 1017 | 10 | E/NE 18.5 | |
| Ieri h: 11:55 | Sereno | 30 | 19 | 51 | 1017 | 10 | E/NE 16.7 | |
| Ieri h: 10:55 | Sereno | 31 | 18 | 45 | 1017 | 10 | N 3.7 | |
| Ieri h: 09:55 | Nuvoloso | 28 | 18 | 54 | 1017 | 10 | O 7.4 | |
| Ieri h: 08:55 | Nuvoloso | 26 | 17 | 57 | 1017 | 10 | O 7.4 | |
| Ieri h: 07:55 | Sereno | 23 | 16 | 64 | 1017 | 10 | N 3.7 | |
| Ieri h: 06:55 | Sereno | 20 | 15 | 72 | 1016 | 10 | N 3.7 | |



